Weather in Irkutsk

Russia / Irkutsk Oblast     52°17′10″N   104°16′50″E
temp.,
°C
wind,
m/s
gust,
m/s
humid.,
%
clouds,
%
prec.,
mm/h
press.,
hPa
HPBL,
m
24 october, sun
sun2423:00+4wnw1284100 0.0 102581
02:00+3w1192100 0.0 102447
05:00+2wsw1194100 0.0 102318
08:00+2s0093100 0.0 102317
11:00+6se01755 0.0 1022311
14:00+9ne01595 0.0 1020575
17:00+8ne11646 0.0 101932
20:00+4se11785 0.0 102110
25 october, mon
mon2523:00+3sse228421 0.0 102122
02:00+2sse118049 0.0 102015
05:00+2s11778 0.0 102110
08:00+2nw267699 0.0 1024167
11:00+3w4989100 0.6 1026485
14:00+7wnw25635 0.6 1025820
17:00+6s11665 0.0 102415
20:00+3sse24796 0.0 102489
26 october, tue
tue2623:00+2sse268198 0.0 1023132
02:00+2sse268216 0.0 1021119
05:00+1sse248111 0.0 102079
08:00+1sse22765 0.0 102034
11:00+7sse01495 0.0 1020172
14:00+10nnw23415 0.0 1020362
17:00+8nnw00500 0.0 102010
20:00+5se2260100 0.0 102112
27 october, wed
wed2723:00+4se226642 0.0 101930
02:00+3se267163 0.0 1017105
05:00+3se397819 0.0 1014193
08:00+2se398219 0.0 1013177
11:00+9sse38545 0.0 1012404
14:00+13wsw13405 0.0 1012666
17:00+9nw255411 0.0 1014144
20:00+5wsw11695 0.0 101814
28 october, thu
thu2823:00+4sw117514 0.0 101910
02:00+3w117981 0.0 102010
05:00+2wnw2381100 0.0 102174
08:00+2wnw41177100 0.0 1023492
11:00+1nw61293100 0.3 1028682
14:00+1nw5973100 1.4 1030988
17:00+1nw365552 0.0 1032626
20:00−2wnw126933 0.0 103562